PRAETORIAN SDA_615

Last updated on Sat Oct 11 2025 00:02:06 GMT+0000 (Coordinated Universal Time)

1 65578U 25203P 25283.39305095 .00000115 00000+0 90764-4 0 9993 2 65578 81.3005 242.1480 0010255 144.3722 215.8121 13.85273602 4132
UTC large
Height (km)
Speed (km/s)
/
Latitude / Longitude
Inclination (degrees)
Orbital Period (minutes)
Azimuth
Elevation
Range (km)
Doppler Factor

Next 0 passes for location: London (51.5072 / 0.1276)

Sorry there are no passes over London.
PRAETORIAN SDA_615